Вернуться в каталог

STARLINK-5452

АктивенСвязьVLEO
NORAD 54772·PAYLOAD·🇺🇸 United States

Запущен Dec 17, 2022 с Cape Canaveral Space Force Station

Loading…

Ближайшие Пролёты (ближайшие 24 часа)

TLE

СвежийSource: CelesTrak SupGP

Эпоха: Sep 15, 2026, 01:22 UTC

1 54772C 22175Q   26258.05743056 -.00016557  00000+0 -48922-3 0  2586
2 54772  53.1565 245.3252 0001280  95.1282 271.1550 15.34396522    15

Отслеживайте STARLINK-5452 в реальном времени с AllMySat

Download on the App Store